Theta_e
302 301 300 299 298 297 297 296 296 296 296 296 296 296 295 295 295 294 294 294 294 294 294 293 293 293 293 292 292 292 291 291 290 290 289 289 289 289 288 288 288 288 288 287 287 286 286 285 285 285 284 284 284 284 284 284 284 284 284 283 283 282 282 282 281 282 284 284 283 283 282 282 282 282 282 282 282 282 281 281 281 280 280 280 280
302 301 300 298 298 297 296 296 296 296 295 295 295 295 295 295 294 294 294 294 294 293 293 293 293 292 292 292 292 291 291 291 290 290 289 289 289 289 288 288 288 288 287 287 287 286 285 285 285 284 284 284 284 284 284 284 284 284 283 283 283 282 282 282 281 281 283 284 283 282 282 282 282 282 281 281 281 281 281 280 280 280 279 279 279
301 300 299 298 297 296 296 296 296 295 295 295 295 295 295 294 294 294 293 293 293 293 293 292 292 292 292 292 291 291 291 290 290 289 289 289 289 288 288 288 288 287 287 287 286 285 285 284 284 284 284 284 284 284 283 284 283 284 283 283 283 282 282 281 281 281 282 283 283 282 282 282 282 281 281 281 281 280 280 280 279 279 279 278 278
301 300 299 297 297 296 296 296 295 295 295 295 295 294 294 294 293 293 293 293 293 293 292 292 292 292 292 291 291 291 291 290 290 289 289 289 288 288 288 288 287 287 287 286 286 285 284 284 284 284 284 283 283 283 283 283 284 283 283 283 283 282 282 281 281 281 281 282 282 281 281 282 281 281 281 280 280 280 279 279 279 278 278 278 278
300 299 298 297 296 295 295 295 295 295 294 294 294 294 294 293 293 293 293 292 292 292 292 291 291 291 291 291 291 291 290 290 289 289 289 288 288 288 288 287 287 287 286 286 285 285 284 284 284 283 283 283 283 283 283 283 283 283 283 283 283 282 282 281 281 281 280 281 281 281 281 280 281 280 279 279 279 279 279 278 278 277 277 277 277
300 299 298 297 296 295 295 295 295 294 294 294 293 293 293 293 292 292 292 292 291 291 291 291 291 291 290 290 290 290 290 290 289 289 289 288 288 287 287 287 287 287 286 286 285 285 284 284 284 283 283 283 283 283 283 283 283 283 283 283 282 282 281 281 280 280 280 280 280 280 280 279 279 279 279 277 277 278 278 277 277 276 276 276 276
299 298 297 297 296 295 295 294 294 294 294 293 293 293 292 292 292 292 291 291 291 291 291 290 290 290 290 290 290 290 290 289 289 289 289 288 288 287 287 286 286 286 286 286 285 285 284 284 283 283 283 283 283 283 283 283 283 283 283 282 282 281 281 280 280 279 279 279 279 278 278 278 277 277 278 276 276 276 276 276 275 275 275 275 275
299 298 297 296 296 295 294 294 293 293 293 293 292 292 292 291 291 291 291 290 290 290 290 290 290 290 290 289 290 290 289 289 289 289 288 288 288 287 287 286 286 286 286 286 285 285 284 284 283 283 283 283 283 283 283 283 283 283 282 282 281 280 280 279 279 279 278 278 277 276 276 276 275 276 276 275 275 275 275 274 275 275 275 275 275
299 298 297 296 295 295 294 293 293 293 293 292 292 291 291 291 291 290 290 290 290 290 290 290 290 290 290 289 289 289 289 289 289 289 288 288 288 287 287 286 286 286 286 285 285 285 284 284 283 283 283 282 282 282 282 282 282 282 281 281 280 280 279 279 278 278 277 276 275 275 274 274 274 274 275 275 274 275 274 274 274 274 275 275 275
299 298 297 296 295 294 293 293 293 292 292 292 291 291 291 291 290 290 290 290 290 290 290 290 290 290 289 290 290 289 289 289 289 289 288 288 288 287 287 286 286 286 285 285 285 285 284 284 283 283 282 282 282 282 282 282 282 281 281 280 279 279 279 278 277 277 276 275 274 274 274 274 274 274 274 274 274 274 274 274 274 275 275 275 275
298 297 297 296 294 294 293 293 293 292 292 291 291 291 290 290 290 290 290 290 290 290 290 290 290 290 289 290 289 289 289 289 288 288 288 288 288 287 287 287 286 286 285 285 285 285 284 284 283 282 282 282 282 282 282 282 281 281 280 279 279 278 278 277 276 275 274 274 274 274 274 274 274 275 275 274 274 274 274 275 275 275 275 275 275
298 297 296 295 294 294 293 293 292 292 291 291 291 290 290 290 290 290 290 290 290 290 290 290 289 289 289 289 289 289 289 289 288 288 288 288 288 288 287 287 286 286 285 285 285 285 284 283 283 282 282 282 282 282 282 282 281 280 279 279 278 278 277 276 275 274 274 274 274 274 275 275 275 275 274 274 274 274 274 274 274 274 274 274 274
298 297 296 295 294 293 293 293 292 292 291 291 290 290 290 290 290 290 290 290 290 290 290 289 289 289 289 289 289 289 289 288 288 288 288 288 288 288 287 287 287 286 285 285 285 285 284 283 282 282 282 282 282 282 281 281 280 279 279 279 278 278 276 275 274 274 274 275 274 274 275 274 274 274 274 274 274 274 274 274 273 273 273 272 273
297 296 295 295 294 293 293 292 292 291 291 290 290 290 290 290 289 289 289 289 290 290 290 290 289 289 289 289 289 289 288 288 288 288 288 288 288 288 287 287 287 286 286 285 285 284 284 283 282 282 282 281 281 281 281 280 280 279 279 279 278 277 275 274 274 274 274 274 274 274 274 273 273 273 273 273 273 273 273 273 272 272 272 272 272
297 296 295 294 294 293 292 292 292 291 291 290 290 290 290 289 289 289 289 289 290 290 290 290 289 289 289 289 289 288 288 288 288 288 288 288 288 288 287 287 287 287 286 285 285 284 284 283 282 282 281 281 281 281 280 280 279 280 279 278 276 275 274 274 274 274 274 273 273 273 273 273 273 273 273 273 273 273 273 273 272 272 272 273 273
296 296 295 295 294 293 292 292 291 291 290 290 290 290 289 289 289 289 289 289 289 289 290 290 289 289 289 289 288 288 288 288 288 288 288 288 287 287 287 287 287 287 286 286 285 284 283 282 282 282 281 281 281 280 279 279 279 279 278 276 275 275 275 274 274 274 273 273 273 273 273 272 272 272 273 273 273 273 273 273 273 273 272 273 273
296 296 296 295 294 293 292 292 291 291 291 291 290 290 289 289 289 289 289 289 289 290 290 290 289 289 289 288 288 288 288 288 288 287 287 287 287 287 287 287 287 287 286 286 285 284 283 282 282 281 281 281 280 279 279 279 278 277 276 276 276 275 275 275 274 274 274 274 273 273 273 272 272 273 273 273 273 273 273 273 273 272 272 271 271
297 297 296 295 294 293 292 292 291 291 291 291 290 290 289 289 289 289 289 289 289 290 290 290 290 290 289 288 288 288 287 287 287 287 287 287 287 287 287 287 287 286 286 285 285 284 283 282 282 281 281 280 279 279 279 278 276 276 275 275 275 275 275 275 275 275 274 274 273 273 273 273 273 273 273 273 273 273 273 273 272 272 271 270 270
297 296 296 295 294 294 293 292 292 291 291 291 290 290 289 289 289 289 289 289 289 289 290 290 290 290 289 288 288 288 287 287 287 287 287 287 287 287 287 287 287 286 286 285 284 284 283 282 281 281 280 279 279 278 278 277 275 275 275 275 275 275 274 275 275 275 274 274 273 273 273 273 273 273 273 273 273 273 273 273 273 272 271 270 269
297 296 296 295 294 294 293 293 292 292 291 291 290 290 289 289 289 289 289 289 289 289 289 290 290 289 288 288 288 287 287 287 287 287 286 287 287 287 287 287 286 286 285 285 284 284 283 282 281 280 279 279 278 278 277 276 274 274 275 275 274 274 274 274 274 274 273 273 273 273 273 273 273 273 273 273 273 273 273 273 273 272 270 269 268
296 296 295 295 294 294 293 293 292 292 291 291 290 289 289 289 289 289 289 288 288 289 289 290 290 289 288 288 288 287 287 287 287 287 286 286 286 286 286 286 286 286 285 285 284 283 282 281 280 280 279 278 278 277 276 274 273 274 275 274 273 273 274 274 274 273 273 273 273 273 273 273 273 273 273 273 273 273 273 273 273 272 270 269 268
296 295 295 294 294 294 293 293 292 292 291 291 290 289 289 289 289 289 289 288 288 288 289 289 289 289 288 288 287 287 287 287 287 286 286 286 286 286 286 286 286 286 285 285 284 283 282 281 280 279 278 278 277 276 274 274 274 274 274 274 273 273 274 274 273 273 273 273 273 273 273 273 273 273 273 273 273 273 273 273 273 272 272 270 269
295 295 294 294 294 293 293 293 292 292 291 291 290 290 289 289 289 289 289 288 288 288 288 288 288 288 288 288 287 287 287 287 286 286 286 286 286 286 286 286 286 286 285 285 284 283 282 280 279 278 278 277 276 274 274 274 274 274 274 273 273 274 274 274 273 273 273 273 273 273 273 273 273 273 273 273 273 273 273 273 273 273 272 272 271
295 295 295 294 294 293 293 292 292 292 291 291 290 290 289 289 288 288 288 288 288 288 288 288 288 288 288 288 287 287 287 287 286 286 286 286 285 285 285 285 285 285 285 285 284 283 281 280 278 278 277 276 275 274 275 275 274 273 273 273 274 274 274 273 273 273 273 273 273 273 273 273 273 273 273 273 272 273 273 273 273 273 272 272 272
295 295 295 294 294 293 293 292 292 292 291 291 290 290 289 289 288 288 288 288 288 288 288 288 288 288 288 288 288 287 287 287 286 286 285 285 285 285 285 285 285 285 285 285 284 282 280 279 278 277 277 276 275 275 275 274 273 273 274 274 274 274 273 273 273 273 273 273 273 273 273 273 272 272 272 272 272 272 272 273 272 272 272 273 273
295 295 295 294 294 293 293 292 292 291 291 291 290 290 289 289 288 288 288 288 288 288 288 288 288 288 288 288 288 287 287 286 286 286 285 285 285 285 285 285 285 284 284 284 283 281 279 278 277 277 277 276 275 275 274 274 274 274 274 274 274 273 273 273 273 273 273 273 273 273 272 272 272 272 272 271 271 272 272 272 272 272 272 272 273
294 294 294 294 293 293 293 293 292 292 291 291 290 290 289 289 288 288 288 288 288 288 288 288 288 288 288 288 288 287 287 286 286 286 285 285 285 285 285 285 285 284 284 283 281 280 278 277 277 277 277 276 275 275 275 275 274 274 273 273 273 273 273 273 273 273 273 273 273 272 272 272 272 272 272 271 271 272 272 272 272 272 272 272 272
292 292 291 292 292 292 292 292 292 292 291 291 291 291 290 290 290 290 290 289 289 288 288 288 288 288 288 288 287 287 286 286 286 286 286 285 285 284 284 284 284 284 283 282 280 279 278 277 277 277 276 276 275 275 275 274 274 273 273 273 273 272 272 272 272 272 272 272 272 272 272 271 271 271 272 271 271 271 272 271 272 272 272 272 272
291 290 290 290 290 290 290 290 290 290 290 291 291 291 291 291 290 291 291 290 290 289 289 289 288 288 287 287 287 287 286 286 286 286 285 284 284 284 284 284 284 284 283 281 280 278 278 277 277 277 276 275 275 275 274 273 273 273 273 272 272 272 272 272 272 272 272 271 271 271 271 271 271 271 271 272 271 271 271 271 271 272 272 272 272
290 290 290 290 290 290 290 290 290 290 290 290 290 290 290 290 290 290 290 290 290 289 289 289 289 288 287 286 286 286 286 285 285 284 284 283 283 284 284 284 283 283 282 280 279 278 278 277 277 276 275 275 275 274 274 273 273 273 273 272 272 272 272 272 272 272 271 271 271 271 271 271 271 271 271 271 271 271 271 271 271 271 271 271 271
290 290 290 290 290 290 290 290 290 290 290 290 290 290 289 290 290 290 289 289 289 289 289 289 289 288 287 286 285 285 284 284 283 283 283 283 283 283 283 283 283 282 281 279 278 278 278 277 276 275 274 274 274 274 273 273 272 272 272 272 272 272 272 272 271 271 271 271 271 271 271 271 271 271 271 271 271 271 271 271 271 271 271 271 271
290 290 290 290 290 290 290 290 290 290 290 290 290 290 290 289 289 289 289 289 289 289 289 289 288 288 287 286 285 284 284 283 283 283 283 283 283 283 283 283 282 281 280 279 278 278 277 276 275 274 274 274 274 274 273 273 272 272 272 272 272 272 271 271 271 271 271 271 271 271 271 270 271 271 271 271 271 271 271 271 270 270 271 271 271
291 291 291 291 290 290 290 290 290 290 290 290 290 290 290 290 290 289 289 289 289 289 289 288 288 288 287 286 286 284 283 283 282 282 282 282 282 282 282 282 281 280 279 278 277 277 276 275 275 274 274 274 274 273 273 273 272 272 272 272 272 272 271 271 271 271 270 270 270 270 270 270 270 270 270 270 270 270 270 270 270 270 270 270 271
291 291 291 291 291 290 290 290 290 290 290 290 290 289 289 289 289 289 289 289 288 288 288 288 287 287 286 286 286 284 283 282 281 281 281 281 281 282 281 281 280 279 278 277 277 276 276 275 274 274 274 274 274 273 273 273 272 272 272 272 271 271 271 271 271 270 270 270 270 270 270 270 270 270 270 270 270 270 270 270 270 270 270 270 270
290 290 290 290 290 290 290 290 290 290 290 290 290 289 289 289 289 289 288 288 288 287 287 287 287 286 286 285 285 284 283 281 281 281 281 281 281 281 280 280 279 279 278 277 277 276 276 275 274 274 273 273 273 273 273 272 272 272 271 271 271 271 271 270 270 270 270 270 270 270 270 270 270 270 270 270 270 270 270 270 269 269 269 269 269
290 290 290 290 290 290 290 290 290 290 290 290 289 289 289 289 289 288 288 287 287 287 286 286 286 285 284 284 283 283 282 281 280 280 280 280 280 280 280 280 280 279 278 277 277 276 275 275 274 273 273 273 273 273 272 272 272 271 271 271 271 271 271 270 270 270 270 270 270 270 270 270 270 270 269 270 270 270 270 269 269 269 269 268 268
290 290 290 290 290 290 290 290 289 289 289 289 289 289 289 288 288 288 287 287 287 286 286 286 285 284 283 283 283 282 281 280 279 279 279 279 279 280 280 280 279 279 278 277 276 276 275 274 274 273 273 273 273 272 272 272 271 271 271 271 271 270 270 270 270 270 270 270 270 269 269 269 269 269 269 269 269 269 269 269 269 269 268 268 268
290 290 290 290 290 289 289 289 289 289 289 289 288 288 288 288 288 288 287 287 287 286 286 285 285 284 283 283 282 281 280 279 278 278 278 279 279 279 279 279 278 278 277 276 276 275 274 274 273 273 273 273 273 272 272 272 271 271 271 270 270 270 270 270 270 270 269 270 270 269 269 269 269 269 269 269 269 269 269 268 268 268 268 268 267
290 290 290 290 289 289 289 289 289 289 288 288 288 288 288 288 288 288 287 287 286 286 285 285 284 284 283 282 281 280 279 278 278 278 279 279 279 278 278 278 277 276 276 276 275 275 274 273 273 273 273 273 272 272 272 271 271 271 270 270 270 270 270 270 270 269 269 269 269 269 269 269 269 269 269 269 269 268 268 268 267 267 267 267 267
290 290 290 289 289 289 289 289 289 288 288 288 288 288 288 287 287 287 286 286 286 285 284 284 283 283 282 281 280 279 278 278 278 278 278 278 278 277 277 276 276 276 276 275 275 274 273 273 272 272 272 272 272 272 271 271 271 270 270 270 270 270 270 270 269 269 269 269 269 269 269 269 269 269 269 268 268 267 267 267 267 267 266 266 266
290 290 290 289 289 289 289 289 289 288 288 288 287 287 287 287 286 286 285 285 284 284 283 283 282 281 280 280 279 278 277 277 277 277 277 277 277 276 276 276 276 276 275 275 274 273 273 273 272 272 272 272 272 271 271 271 270 270 270 270 270 270 270 270 269 269 269 269 269 269 269 269 268 268 268 268 267 267 267 267 267 266 266 266 266
290 290 290 289 289 289 289 289 288 288 288 287 287 287 286 286 285 285 284 284 283 283 282 281 281 280 279 278 277 277 277 276 276 276 276 276 276 276 276 276 275 275 274 274 273 273 272 272 272 272 272 271 271 271 270 270 270 270 270 270 270 270 270 269 269 269 269 269 269 269 269 268 268 267 267 267 267 267 267 267 267 267 267 267 266
289 289 289 289 289 289 289 288 288 288 287 287 286 286 285 285 284 284 283 283 282 281 281 280 279 279 278 277 276 276 276 276 276 276 276 276 276 276 275 275 275 274 274 273 273 272 272 272 272 271 271 271 270 270 270 270 269 269 269 269 269 269 269 269 269 269 268 268 268 268 268 268 267 267 267 267 267 267 267 267 267 267 267 267 267
289 289 289 289 288 288 288 288 288 287 287 286 286 285 285 284 284 283 282 281 281 280 279 279 278 277 276 276 275 275 276 276 276 276 276 276 275 275 275 274 274 273 273 272 272 272 271 271 271 271 270 270 270 269 269 269 269 269 269 269 269 269 269 269 268 268 268 268 268 268 268 268 268 268 268 268 268 268 268 267 267 267 267 267 267
288 288 288 288 288 288 288 287 287 287 286 285 285 284 284 283 282 282 281 280 279 278 278 277 277 276 275 275 275 275 276 276 276 276 276 275 275 274 274 274 273 273 272 272 271 271 271 271 270 270 270 269 269 269 269 268 268 268 268 268 268 268 268 268 268 267 267 267 268 268 268 268 268 268 268 268 267 267 267 267 267 267 267 267 267
287 287 287 287 287 287 287 287 286 286 285 284 284 283 282 282 281 280 279 278 278 277 276 276 275 275 275 275 275 275 275 276 276 275 275 274 274 274 273 273 272 272 271 271 271 270 270 270 270 270 269 269 268 268 268 268 268 268 268 268 268 268 268 268 267 267 267 267 268 268 268 268 268 268 268 267 267 267 267 267 267 267 267 267 267
287 287 286 286 286 286 286 285 285 284 283 283 282 281 281 280 279 278 278 277 276 275 275 275 275 275 275 275 275 275 275 275 274 274 274 274 273 273 272 272 271 271 271 270 270 270 270 270 270 270 269 269 268 268 268 268 268 268 267 267 267 267 267 267 267 267 267 267 268 268 268 268 268 268 267 267 267 267 267 267 266 266 266 266 266
286 286 285 285 285 285 284 284 283 283 282 281 280 279 279 278 278 277 276 276 275 275 274 274 274 275 275 275 274 274 274 274 273 273 273 273 272 272 271 271 271 271 271 270 270 270 270 270 270 269 269 269 268 268 267 267 267 267 267 267 267 267 267 267 267 268 268 268 268 268 268 268 268 268 267 267 267 267 267 266 266 266 266 266 266
285 285 285 285 284 284 284 283 282 281 281 280 279 278 277 277 276 276 275 275 274 274 274 274 274 274 274 274 273 273 273 273 273 272 272 272 271 271 270 270 270 270 270 270 270 270 270 270 269 269 268 268 268 267 267 267 267 267 267 267 267 267 267 267 268 268 268 268 268 268 268 268 268 267 267 267 267 267 266 266 266 266 266 266 266
284 284 284 283 283 282 282 281 280 280 279 278 277 277 276 275 275 275 274 274 274 274 274 274 273 273 273 273 273 272 272 272 272 271 271 270 270 270 269 269 269 269 269 269 270 270 270 269 269 268 268 268 267 267 267 267 267 267 267 267 267 267 267 268 268 268 268 268 268 268 268 268 267 267 267 267 267 267 267 266 266 266 265 265 265
283 282 282 281 281 280 280 279 278 278 277 277 276 276 275 275 274 274 274 273 273 273 273 273 272 272 272 272 272 271 271 271 271 270 270 269 269 269 269 269 269 269 269 269 270 270 269 269 269 268 268 268 267 267 267 267 267 267 267 267 267 267 267 268 268 268 268 268 268 268 268 268 268 268 268 267 267 267 266 266 266 265 265 265 265
Wind_Speed
37 36 36 35 34 32 30 29 27 25 24 23 21 21 20 19 18 17 16 14 12 11 10 9 8 7 6 5 3 2 2 3 4 4 5 5 5 6 6 7 7 8 8 8 8 9 9 10 11 11 12 13 14 15 17 18 20 21 22 24 25 26 27 28 31 37 39 38 39 41 40 41 43 43 43 44 43 43 43 41 39 37 36 35 34
38 37 36 35 34 32 31 29 28 27 26 25 24 23 22 21 20 18 17 15 14 13 12 11 10 9 7 5 3 2 0 2 3 4 4 5 5 6 6 6 7 7 8 8 8 9 10 10 11 12 12 14 15 16 18 19 21 22 24 25 27 27 28 29 31 36 40 40 40 41 41 41 43 44 44 45 45 45 44 41 38 36 34 33 32
38 37 36 36 35 33 32 31 30 29 28 27 26 25 24 22 21 19 18 17 16 15 14 13 11 9 8 6 4 3 1 1 2 3 4 4 5 5 6 6 7 7 8 9 9 9 10 11 12 13 13 15 16 17 19 20 22 24 25 27 28 29 30 31 32 35 39 41 41 42 43 43 44 45 45 46 46 45 43 41 38 37 35 33 31
39 38 37 36 36 35 33 32 31 31 29 28 27 26 25 24 23 21 20 18 17 17 16 14 12 11 9 8 6 4 3 2 2 2 3 3 4 4 5 6 6 7 8 8 9 10 11 12 13 14 14 15 16 18 20 21 23 25 27 28 29 31 31 32 33 35 38 41 42 43 44 44 44 45 45 45 45 44 44 42 40 38 35 33 31
40 39 38 37 37 36 35 34 33 32 31 30 29 28 26 25 24 23 22 20 19 18 16 15 13 12 11 9 7 6 4 3 3 2 2 3 4 5 5 6 7 8 8 9 10 10 11 13 13 14 15 16 17 19 20 22 24 26 27 29 30 32 33 33 34 35 37 41 43 43 44 44 44 45 44 43 44 45 43 41 38 37 36 35 34
41 40 39 39 38 38 36 35 34 33 32 31 30 28 28 27 26 24 23 22 20 18 16 15 14 13 11 10 8 7 6 5 4 2 2 3 5 6 6 7 7 8 9 10 11 11 12 13 14 15 16 18 19 20 21 23 25 27 28 30 31 32 34 34 35 36 37 39 42 43 43 43 43 44 43 40 40 42 42 41 39 37 38 39 39
42 41 40 39 39 38 37 36 35 33 32 31 30 29 28 27 26 25 24 22 20 19 17 16 14 13 11 10 10 9 7 6 3 1 3 4 5 6 7 8 9 9 10 11 12 13 13 14 15 16 17 18 20 21 22 24 26 28 29 30 32 33 34 34 34 35 36 37 39 41 42 41 40 41 41 37 36 37 38 41 43 41 40 41 42
43 42 41 41 40 39 38 37 35 34 33 32 31 30 29 28 26 25 24 23 21 19 17 16 15 13 13 12 11 9 8 6 3 2 3 5 6 8 9 10 10 10 11 12 13 14 15 16 16 17 18 19 20 21 23 25 27 29 30 31 32 33 33 33 33 34 34 35 36 37 38 39 39 40 39 37 37 38 37 39 45 47 45 43 43
44 43 42 42 41 40 38 37 36 35 34 33 33 32 30 29 28 27 25 23 22 20 19 17 16 15 14 13 12 10 8 6 4 3 4 5 8 10 11 11 12 12 12 12 13 15 16 17 17 18 19 19 20 22 23 25 27 29 30 31 31 32 32 32 32 32 32 33 34 35 37 39 39 38 38 38 39 41 41 40 44 47 46 46 45
45 44 44 43 42 40 39 38 37 36 35 34 34 32 31 30 29 28 27 25 24 22 20 19 17 17 16 14 13 11 9 7 5 5 5 6 8 11 12 13 13 12 12 12 13 15 16 17 18 18 19 20 21 22 24 26 27 28 29 30 30 30 31 31 31 30 30 32 33 33 35 38 38 37 39 41 40 40 41 43 45 45 44 45 43
45 45 44 43 42 41 40 39 38 37 36 36 35 33 32 31 30 29 29 27 25 23 21 20 20 19 18 16 14 12 10 8 7 6 6 7 9 11 13 14 14 13 13 12 13 14 16 17 18 19 19 20 21 23 24 26 27 28 29 28 28 28 28 28 28 28 28 30 31 32 34 37 39 38 38 40 41 40 41 41 40 39 38 37 38
46 46 45 43 43 42 41 40 39 39 38 37 36 34 33 32 32 31 31 28 26 24 23 22 21 19 19 17 15 13 11 10 9 7 7 8 10 11 13 14 15 15 14 14 14 15 16 17 18 19 20 20 22 23 25 26 28 28 28 27 27 26 24 23 23 24 25 27 30 31 32 34 37 37 36 37 39 39 39 37 35 35 37 39 43
47 46 45 44 44 44 42 42 41 40 39 38 37 36 34 35 34 33 32 29 27 25 24 22 21 20 20 18 16 14 13 11 10 9 8 9 11 12 13 14 15 16 16 16 15 16 17 18 18 19 20 21 22 24 26 27 28 27 27 27 26 26 25 22 20 20 21 23 26 29 30 32 34 36 35 34 36 37 39 41 41 42 43 44 47
48 47 46 45 46 45 44 43 42 41 40 39 38 37 36 36 35 34 33 30 28 27 25 23 22 22 21 19 17 16 14 13 12 10 10 11 11 13 13 14 15 17 17 17 17 17 18 19 19 19 20 21 22 24 26 27 27 27 27 28 27 27 26 24 20 18 19 21 26 30 32 31 30 31 32 32 35 39 42 45 45 43 44 44 43
48 47 47 47 47 47 46 44 43 42 41 39 38 38 38 38 37 35 34 31 29 27 25 24 24 23 21 20 19 18 16 15 13 12 12 12 12 13 13 14 15 17 18 18 18 18 19 19 20 20 21 22 23 25 26 27 28 29 28 28 27 27 25 23 21 22 24 26 28 30 29 27 26 29 32 34 35 37 39 40 40 39 40 41 41
48 48 48 49 49 49 47 45 44 43 41 41 40 40 40 39 38 37 35 32 30 28 26 26 26 24 23 22 21 19 18 17 15 14 14 13 13 14 14 14 15 17 18 18 19 19 19 19 20 21 22 23 24 25 26 27 28 28 27 26 26 26 25 25 25 25 27 27 26 26 26 27 28 30 31 31 32 34 35 35 35 35 35 37 38
48 49 49 50 50 49 47 46 45 44 43 43 43 43 42 41 39 38 36 34 33 30 29 29 28 27 26 24 22 21 20 19 17 16 15 15 15 15 15 15 16 17 18 19 19 19 19 19 20 21 22 24 25 26 25 24 25 25 25 26 26 27 27 26 27 27 27 26 26 26 26 27 28 28 28 29 29 30 31 32 31 31 32 34 35
49 49 50 51 50 49 47 47 46 45 44 44 45 44 43 41 40 38 37 36 35 32 31 30 30 29 28 26 24 23 23 21 19 18 17 17 17 17 16 16 17 17 18 19 20 20 20 20 20 22 24 24 25 25 23 21 22 23 24 25 27 27 27 27 28 29 28 26 25 25 25 25 26 27 27 27 26 25 26 28 28 29 29 29 31
47 48 48 49 49 48 47 46 46 45 45 45 45 44 43 41 40 39 38 38 36 34 32 32 32 32 31 29 27 26 25 24 22 20 19 19 19 19 19 18 18 18 18 19 20 21 21 20 21 22 24 24 24 23 20 18 19 20 22 24 26 26 26 27 29 29 27 26 26 25 24 24 25 26 25 24 23 23 23 24 26 26 26 27 28
43 43 45 45 46 46 45 44 45 45 45 45 45 44 43 41 41 40 40 40 39 36 34 34 33 33 33 32 29 27 27 26 24 22 21 20 20 21 21 20 19 19 20 20 21 21 21 21 21 22 23 23 22 21 19 16 16 19 22 23 23 24 26 28 28 27 26 26 25 25 24 24 25 24 23 22 22 22 23 23 24 24 24 25 26
36 37 39 40 41 41 41 41 42 42 43 43 44 44 44 43 42 41 41 42 41 39 37 36 35 36 36 34 32 30 29 27 26 24 23 22 22 22 23 21 20 20 21 21 21 22 22 21 21 22 22 21 20 19 16 14 16 19 21 21 20 21 25 27 25 24 24 24 24 23 23 24 23 22 21 21 22 22 22 21 21 22 21 22 24
30 31 33 33 34 35 36 37 38 39 39 40 42 44 44 44 44 43 43 43 43 42 40 38 38 38 38 37 35 32 31 30 28 27 25 23 23 23 24 23 22 22 22 22 22 23 22 22 22 22 21 20 18 15 14 16 19 20 20 19 19 21 23 24 24 23 23 23 22 22 22 22 22 21 20 21 21 21 21 20 20 20 20 21 21
24 26 27 28 29 30 31 32 33 35 35 36 38 40 42 44 45 45 44 44 44 44 43 42 41 41 40 39 38 35 33 32 30 29 28 26 24 24 24 24 24 23 23 23 23 23 23 22 21 21 20 19 14 12 16 19 21 20 19 20 22 23 23 22 22 22 22 21 21 21 21 22 21 20 20 20 21 21 21 20 19 20 21 21 21
21 22 23 25 26 27 28 29 30 31 32 33 35 37 39 41 44 45 46 46 46 46 46 45 44 43 42 42 40 38 36 34 32 31 30 28 26 25 25 25 24 24 24 24 23 23 23 23 21 20 19 15 12 15 20 21 20 20 20 21 23 23 21 21 22 22 21 21 21 20 20 21 21 21 20 20 21 22 21 20 20 20 21 22 22
19 20 22 23 24 25 26 27 28 29 31 32 34 35 36 38 41 43 45 46 47 48 48 47 47 45 44 44 43 41 38 36 35 33 31 29 28 26 26 25 25 24 24 24 25 24 24 23 21 19 18 16 17 20 21 20 19 20 20 21 22 22 21 20 21 21 21 21 20 20 20 20 20 20 20 20 20 21 21 20 20 20 21 22 22
18 19 21 21 22 23 24 26 27 28 29 31 32 33 34 35 37 39 42 45 47 48 49 49 48 48 47 46 45 43 41 39 37 34 32 31 30 28 27 26 25 24 24 24 24 24 24 23 21 19 18 17 18 19 20 19 19 19 20 21 21 21 20 20 21 21 21 20 20 20 20 20 20 20 19 19 20 21 21 21 22 22 23 24 24
17 18 19 19 20 21 22 24 25 26 28 29 30 31 32 33 35 37 40 42 44 46 48 49 49 50 49 48 47 45 43 41 39 36 34 33 31 29 29 28 26 25 23 23 23 23 23 22 21 20 18 17 17 18 19 19 18 18 19 20 20 20 20 20 21 21 21 20 20 20 20 19 20 19 18 19 19 20 20 21 23 24 25 26 26
16 16 16 16 17 18 19 20 22 23 24 25 26 28 29 31 33 35 36 38 40 42 44 46 47 48 49 48 48 46 44 43 41 38 36 34 32 30 30 29 27 25 23 22 23 24 24 23 21 19 16 16 17 18 18 18 18 18 19 19 20 20 20 20 20 21 21 20 19 19 20 19 19 18 18 18 19 19 20 21 22 23 24 26 27
15 15 15 16 16 16 17 18 18 19 21 22 23 25 26 28 30 31 32 34 36 38 40 42 43 44 44 45 45 45 44 43 40 37 34 33 32 32 31 29 27 25 24 23 23 25 25 24 21 17 15 15 16 16 16 17 17 18 19 19 20 20 20 20 20 20 19 20 19 19 19 19 18 18 18 18 18 19 19 20 22 23 24 25 26
16 16 16 16 16 17 17 17 18 18 19 20 22 23 24 26 28 28 30 31 33 35 37 39 39 40 41 41 41 41 41 39 35 33 33 34 34 33 31 29 27 25 23 22 24 26 27 24 20 17 16 16 16 15 16 17 17 18 18 19 19 20 19 19 19 19 19 19 19 19 19 19 19 18 18 19 19 19 19 20 21 23 24 25 26
17 18 18 18 18 18 19 19 20 21 21 22 23 24 25 26 27 28 29 30 32 33 35 36 37 39 39 39 39 39 39 37 36 35 36 35 34 32 30 28 27 25 23 23 26 28 27 24 21 19 19 18 18 17 17 18 18 18 18 18 19 19 19 19 19 19 19 19 19 19 19 19 19 19 19 20 20 20 20 21 22 23 24 25 26
17 17 18 18 19 20 21 22 22 23 24 25 26 27 28 29 30 31 32 32 33 34 35 36 37 38 38 39 39 40 40 40 39 38 36 35 33 32 30 28 27 25 23 23 26 27 26 24 22 21 20 19 19 18 19 19 19 19 18 18 18 18 19 19 19 19 20 20 20 20 20 20 20 20 20 21 21 21 21 22 22 23 24 25 25
17 17 18 19 20 21 23 23 25 26 26 27 28 29 30 31 32 33 34 35 36 36 37 37 38 38 39 39 40 40 41 40 39 37 36 34 32 31 30 28 27 24 23 23 26 27 27 25 24 22 21 20 20 20 20 20 20 20 19 18 17 17 18 19 20 20 20 20 20 20 21 21 21 21 21 21 21 21 22 23 23 24 25 25 26
20 20 21 21 22 23 24 25 26 27 27 28 30 31 32 33 33 33 35 36 38 38 38 37 37 38 39 40 40 41 41 40 38 37 35 33 32 30 29 27 26 25 24 25 27 28 27 26 24 22 20 20 20 21 21 20 20 21 20 19 18 18 18 19 20 20 20 21 21 21 21 21 21 22 23 22 22 22 22 22 23 24 24 26 26
24 24 24 24 25 26 26 27 28 29 29 31 31 32 33 33 33 34 35 36 37 37 37 36 36 36 37 38 40 40 40 38 37 37 35 33 31 29 28 28 28 27 26 27 28 28 27 24 23 21 20 20 21 22 22 21 21 21 21 20 19 19 19 19 20 20 21 21 21 21 22 22 22 23 23 23 23 23 23 23 23 23 24 25 26
28 28 28 28 28 28 28 29 30 31 31 32 32 32 32 32 33 34 34 35 35 35 35 35 34 34 35 37 38 39 38 37 36 36 35 33 30 29 30 30 30 29 27 26 27 27 27 24 22 20 20 21 22 22 22 22 21 21 21 21 20 20 19 20 20 21 21 22 22 22 23 23 23 23 24 24 24 24 24 24 23 23 23 24 24
29 30 30 30 30 30 30 31 31 32 32 32 32 32 32 32 33 33 33 34 34 33 33 34 34 34 35 36 37 37 37 35 34 33 32 31 30 30 31 31 30 29 28 26 25 26 26 24 22 21 21 21 22 23 23 23 22 22 22 22 21 21 20 20 21 21 22 22 23 23 23 23 23 24 24 25 25 25 24 24 24 24 23 23 23
26 27 28 29 29 30 31 31 32 32 33 33 33 33 32 32 33 33 33 33 33 33 33 34 35 35 35 35 35 35 34 33 33 32 32 31 31 31 31 30 29 29 27 25 24 24 24 23 21 21 21 22 23 23 24 24 23 22 22 23 22 22 21 21 21 22 22 22 23 24 24 24 24 24 25 26 26 26 25 24 24 24 24 23 22
24 25 26 27 28 29 30 31 31 32 33 33 33 33 33 33 33 33 32 32 32 33 34 34 35 35 34 33 32 33 33 34 34 33 32 31 30 30 29 29 29 28 27 25 24 24 23 22 21 21 22 22 23 24 24 24 24 23 23 23 23 23 22 22 22 22 23 23 24 24 25 25 25 26 27 27 27 26 25 25 24 23 24 23 22
24 25 26 26 27 28 29 30 31 32 32 33 33 33 33 32 32 32 32 32 33 33 33 33 33 33 31 30 30 31 32 33 33 32 31 30 29 28 28 28 28 28 26 25 24 24 23 22 21 21 22 23 23 24 24 24 24 24 24 24 24 23 22 22 22 23 23 23 24 25 26 26 26 26 27 27 26 25 25 24 23 23 22 23 22
26 26 27 27 28 28 29 30 30 31 31 32 32 32 32 32 31 31 31 32 32 32 31 31 30 29 27 27 27 29 31 31 31 30 29 28 28 27 27 27 27 27 26 25 24 24 23 23 22 22 22 23 23 24 24 24 24 24 24 24 24 24 23 23 23 23 23 23 24 26 26 26 26 26 26 25 25 24 23 23 22 22 22 22 22
26 26 27 27 28 29 29 30 30 30 31 31 31 31 31 30 30 30 30 30 30 30 29 28 27 25 25 25 26 28 30 31 31 30 28 27 27 26 26 26 26 26 26 25 24 24 24 23 22 22 22 22 23 24 24 25 25 24 24 24 25 25 24 24 23 23 23 23 24 26 26 25 25 25 24 23 23 22 22 22 21 21 21 21 20
25 26 26 27 28 28 29 29 30 30 30 30 30 30 30 29 29 29 29 29 28 28 27 26 24 23 23 23 25 28 31 31 30 28 27 26 25 25 24 24 25 25 25 25 23 23 24 24 22 22 22 22 23 23 24 25 25 25 25 25 25 25 25 24 23 23 23 24 25 25 25 24 24 23 23 22 21 22 22 21 21 21 21 21 20
24 25 26 27 28 28 29 29 29 29 29 29 29 29 29 28 28 28 27 27 26 25 24 23 22 21 22 23 26 28 29 29 27 26 25 24 23 23 23 23 24 25 24 23 23 23 24 24 23 22 22 22 23 23 24 25 25 25 25 25 25 25 25 24 23 22 23 24 24 24 24 24 23 23 23 22 22 22 22 22 21 21 21 21 20
23 23 25 26 27 28 29 29 29 28 28 27 27 27 27 26 26 26 25 24 23 22 21 21 21 21 22 23 24 25 26 26 25 24 23 22 22 22 22 22 23 24 23 23 22 23 24 23 23 23 23 23 23 24 24 25 25 26 25 25 25 25 24 23 23 23 23 24 23 23 24 24 24 24 24 23 23 23 23 23 22 22 21 21 21
22 23 24 25 26 27 28 28 28 27 26 26 25 25 24 24 23 22 22 21 20 19 19 19 20 20 21 21 22 23 23 24 24 23 22 21 21 20 21 22 23 23 23 22 23 23 23 23 24 24 24 24 23 24 25 25 25 26 26 25 25 24 23 23 23 23 23 23 23 23 24 25 25 25 25 25 25 25 24 24 23 22 22 21 21
22 23 23 24 25 25 26 26 26 25 25 24 23 23 22 21 21 20 19 19 18 18 17 18 18 19 19 20 21 22 22 22 23 23 22 21 20 19 20 22 23 23 23 23 23 23 23 24 24 25 25 25 25 25 25 25 25 26 26 25 24 23 22 23 23 23 23 23 23 24 25 26 26 26 26 26 26 26 25 24 23 23 22 22 21
21 22 22 23 23 23 24 24 23 23 22 22 21 20 19 19 18 17 17 16 16 16 16 16 17 18 19 20 20 21 21 22 22 22 22 21 20 19 20 21 22 23 23 23 22 23 23 24 25 26 26 26 26 26 25 25 25 26 25 24 23 23 22 23 23 23 23 23 24 25 26 27 27 27 27 27 27 26 26 25 23 23 22 22 21
20 21 21 21 21 21 21 21 21 21 20 20 19 18 17 16 15 14 14 15 15 15 16 17 18 18 19 19 19 20 21 21 21 21 20 20 19 20 20 21 22 22 22 22 22 22 23 24 25 25 26 26 26 26 25 25 25 25 24 24 23 22 22 23 23 23 23 24 24 25 26 28 28 28 27 27 26 26 26 25 23 23 22 22 21
20 20 20 20 20 20 19 19 19 18 17 16 15 14 14 13 13 13 14 14 15 15 16 16 17 17 18 18 19 20 20 20 20 19 19 19 20 20 20 21 21 21 22 22 22 22 23 24 25 25 25 25 25 25 24 24 24 24 23 23 22 22 22 23 23 23 24 24 25 26 27 28 28 28 27 26 26 25 25 24 23 23 22 22 21
18 18 18 18 18 18 17 16 16 15 15 14 14 13 13 13 13 13 14 14 15 15 16 16 17 18 18 19 19 19 19 19 19 19 19 19 19 20 20 21 21 21 22 22 23 23 23 24 24 24 24 24 24 24 23 23 22 22 22 23 23 23 22 22 23 23 24 25 26 27 28 28 28 27 26 25 24 24 24 23 23 23 22 22 21
Wind_Direction
195 193 191 191 192 190 188 189 189 192 194 195 196 195 193 193 190 189 187 184 182 179 177 175 175 177 175 168 153 116 60 23 12 8 4 355 348 344 341 339 335 330 327 323 319 316 316 317 317 317 317 317 317 318 320 321 323 325 325 325 324 323 321 318 315 316 319 321 319 319 319 319 317 317 318 317 318 319 319 321 323 322 321 319 317
197 194 193 193 194 193 192 192 193 195 196 196 197 197 196 194 193 192 190 188 186 184 184 184 183 183 182 180 175 168 21 5 360 351 348 340 334 332 329 326 323 319 316 315 312 311 311 311 312 313 313 315 316 317 319 320 322 324 325 324 324 322 320 319 317 316 318 319 319 317 317 317 315 315 317 318 319 320 320 323 324 323 322 322 320
199 196 195 195 195 195 195 196 197 198 199 199 199 199 198 196 195 195 194 194 192 189 189 189 189 190 190 192 196 203 246 310 329 331 330 326 325 325 323 320 316 312 309 308 307 306 305 306 308 311 312 313 315 316 317 320 321 322 324 323 322 322 321 319 318 316 316 317 317 316 316 316 316 316 317 318 320 320 321 323 325 324 324 326 325
201 198 197 197 197 197 198 199 200 201 201 202 202 201 199 198 198 197 197 198 198 195 193 192 194 197 197 199 206 212 227 254 283 303 312 321 329 329 325 319 311 307 305 303 303 302 302 305 307 309 311 311 312 314 315 318 319 320 322 322 321 321 320 319 317 316 315 315 316 316 316 316 316 316 318 320 320 320 322 324 325 326 327 329 329
203 200 198 199 199 200 201 202 203 203 203 204 204 202 201 201 200 199 199 200 200 199 196 195 197 200 200 201 208 215 222 236 254 277 311 333 339 336 329 320 310 307 305 303 303 302 301 303 304 306 308 309 310 312 313 316 318 319 320 321 320 320 319 318 317 316 315 315 315 316 315 316 316 316 319 323 321 320 322 325 326 329 331 331 331
204 202 200 201 202 203 203 204 205 205 206 206 205 204 203 202 202 201 200 200 200 199 197 198 201 201 200 202 209 217 222 231 240 267 330 344 345 341 333 325 318 313 310 307 303 301 300 300 302 304 306 307 308 311 313 316 317 319 320 320 320 320 319 318 317 316 315 315 314 314 315 316 316 316 321 327 327 324 324 326 327 329 330 330 329
205 203 203 203 205 206 206 207 207 207 208 207 206 205 204 204 203 202 201 200 199 199 199 201 204 202 201 205 213 219 223 229 235 274 338 349 353 351 342 333 326 318 311 307 303 301 300 299 301 303 304 305 308 311 314 316 317 319 320 320 320 319 318 317 316 315 315 314 313 313 314 316 317 319 323 329 330 328 328 327 326 326 327 327 326
206 205 205 206 207 209 209 209 209 209 209 209 208 207 206 205 204 204 203 201 199 200 201 204 207 206 205 209 217 222 224 229 240 293 333 352 359 356 349 340 332 322 311 306 303 301 300 299 300 301 302 305 308 311 314 316 317 319 320 320 319 318 317 315 314 313 313 312 312 314 316 318 320 323 327 330 330 328 328 325 321 322 324 324 321
207 207 207 208 209 210 210 210 210 210 211 210 209 208 206 206 206 206 206 202 200 201 203 206 209 210 211 216 223 226 228 234 253 291 322 351 358 355 352 344 335 324 312 305 301 299 298 298 298 300 302 304 307 310 314 316 318 319 319 319 318 316 315 313 312 312 313 313 315 318 321 322 324 326 328 328 326 324 324 323 320 321 323 322 319
209 209 209 210 210 211 211 212 212 212 212 212 210 209 208 208 208 207 206 204 204 205 206 208 210 212 217 225 229 230 232 241 257 281 310 343 352 351 350 346 338 326 310 301 298 296 296 297 298 299 300 303 306 310 313 315 317 318 318 317 316 314 313 312 312 314 316 317 319 322 321 320 323 326 324 324 323 321 320 321 321 321 321 320 319
211 211 211 211 212 212 213 214 214 215 214 213 211 210 210 210 210 209 208 207 207 207 208 212 213 215 221 228 230 232 237 245 257 273 299 328 341 346 348 346 341 332 317 305 300 298 297 297 297 298 299 302 306 309 312 315 317 317 317 315 313 310 310 312 314 317 319 318 318 318 318 318 322 324 323 321 320 317 316 319 319 318 317 316 314
213 213 213 213 214 214 215 215 216 217 216 214 213 212 212 212 212 211 210 209 209 209 211 213 214 217 224 228 230 234 239 247 255 268 290 311 324 334 343 345 344 339 329 318 310 304 300 297 295 296 298 302 306 309 313 316 316 317 315 312 309 306 309 315 316 316 317 315 314 315 316 316 317 316 316 316 315 314 315 315 313 309 308 306 304
215 215 215 215 216 217 217 217 218 218 217 215 214 213 214 215 214 214 212 211 211 213 214 215 218 223 227 230 233 236 241 246 253 266 283 298 311 324 335 341 344 343 335 326 316 307 302 298 296 296 298 304 308 312 314 316 316 315 311 306 305 306 314 323 321 313 313 313 311 310 309 310 309 309 311 313 310 309 308 306 304 303 303 302 302
217 217 217 218 219 219 219 219 219 220 219 217 216 216 216 217 216 215 214 214 215 215 217 221 226 228 229 232 235 238 241 247 253 262 276 288 303 316 326 335 342 342 336 328 318 309 303 300 298 299 302 307 311 312 314 314 313 311 308 309 313 317 324 331 328 317 311 306 303 302 302 305 306 305 305 303 301 301 302 302 304 304 304 304 304
219 219 219 220 221 221 220 221 221 221 220 219 219 219 219 218 218 217 216 216 217 218 223 229 231 230 233 236 236 239 242 247 252 260 270 281 293 305 316 326 334 337 334 328 319 309 304 301 301 304 306 309 311 311 313 313 313 314 316 318 321 322 322 322 316 309 304 299 298 300 302 303 302 300 301 303 303 303 304 303 304 304 303 304 305
222 222 223 224 224 223 222 222 222 222 222 223 223 222 220 220 220 218 218 218 218 221 227 232 232 234 237 237 237 240 244 247 252 258 266 275 284 295 307 315 322 329 329 325 318 310 304 301 303 305 307 308 311 312 314 316 317 318 319 318 316 315 315 313 310 306 303 303 305 308 310 309 308 307 309 311 310 309 308 306 306 306 307 309 311
228 228 228 228 227 226 225 224 224 224 225 227 226 224 222 222 221 220 220 220 220 225 231 234 236 239 240 238 239 243 246 247 251 257 263 271 278 287 298 305 313 320 322 320 316 309 304 302 303 305 308 310 312 314 317 319 318 315 314 314 314 315 316 315 313 312 312 316 319 319 318 316 314 315 317 317 315 313 312 312 313 314 315 315 314
234 233 233 232 231 230 229 228 228 228 229 230 229 227 225 224 224 224 224 225 225 230 235 238 242 243 240 239 240 243 247 248 250 255 261 267 274 282 291 298 305 311 314 314 313 309 305 304 304 306 310 312 313 316 319 318 313 311 312 313 313 315 316 315 315 317 320 323 324 322 319 317 318 321 322 321 318 317 316 317 319 319 319 318 317
238 237 237 237 236 235 234 233 232 232 233 234 232 231 228 227 227 227 227 228 228 231 236 241 245 243 240 239 239 241 246 249 250 253 258 264 271 278 285 292 300 305 308 309 310 308 306 305 305 308 310 311 313 315 316 311 306 305 306 307 310 314 314 314 317 322 325 325 324 322 322 323 324 325 325 324 323 323 323 323 323 323 323 324 325
240 240 241 241 241 241 239 238 237 237 238 238 237 235 232 230 230 230 230 230 229 231 235 242 245 243 241 241 241 241 245 249 250 252 255 261 269 275 281 288 295 300 303 307 308 307 305 304 305 306 307 309 311 311 311 309 304 300 301 306 312 314 311 314 320 323 323 322 322 324 327 328 326 325 327 329 330 329 329 328 327 327 326 327 329
243 244 244 244 245 245 244 244 243 243 243 242 240 238 235 233 232 233 232 232 232 233 236 240 243 242 241 242 242 242 245 249 251 252 254 258 265 272 278 285 291 296 300 305 307 306 304 303 303 305 306 308 310 311 311 306 298 296 302 309 310 306 307 314 319 318 317 319 322 325 327 326 324 327 332 334 334 333 333 334 333 330 328 326 327
247 247 247 247 248 249 248 248 248 246 246 245 243 241 238 236 235 235 235 235 235 236 238 240 242 242 242 243 243 243 245 248 251 253 254 256 261 269 275 282 287 292 298 303 305 305 302 300 302 305 304 307 312 310 300 292 292 297 304 305 300 299 305 312 314 314 316 319 321 325 326 324 324 329 335 337 336 335 336 339 339 336 332 329 329
248 248 248 249 249 250 250 250 250 249 249 248 247 245 243 240 238 237 236 237 238 239 240 242 242 243 244 245 245 246 247 248 251 253 254 255 258 265 273 278 284 290 296 300 302 301 299 298 301 302 303 309 312 293 282 288 296 301 301 297 297 302 308 311 310 312 315 318 320 323 324 323 326 331 335 338 336 333 334 338 340 339 336 335 337
242 243 244 246 248 249 250 251 252 252 251 250 249 248 246 243 241 240 239 239 240 241 242 243 243 244 246 248 248 248 248 249 251 253 254 255 257 262 269 275 281 287 292 297 299 297 296 297 299 299 301 304 291 274 280 292 297 296 295 295 298 304 307 307 308 310 313 316 318 321 322 323 326 329 333 336 333 329 331 335 338 338 337 337 342
235 237 239 243 245 248 250 251 252 252 252 251 251 249 248 246 244 242 241 241 242 243 244 245 246 247 249 250 250 250 250 251 252 252 253 254 257 260 265 271 278 284 289 295 297 296 294 296 296 295 293 288 278 276 284 290 289 287 291 294 297 301 303 304 305 307 310 313 315 318 321 323 325 327 330 333 330 326 327 332 335 336 336 336 341
230 234 237 241 244 246 248 249 250 251 251 252 252 252 251 250 248 247 246 245 245 246 247 248 249 249 250 252 252 251 251 251 252 252 253 255 257 259 264 269 274 279 284 288 290 290 290 290 289 287 284 279 276 277 280 280 281 284 288 291 295 298 300 301 303 304 307 310 313 316 320 321 322 323 326 329 328 326 330 335 337 338 339 339 339
230 234 237 241 242 244 246 246 247 249 250 251 251 251 251 250 248 248 247 246 247 248 249 250 250 251 252 253 253 252 251 252 252 252 254 257 258 259 262 266 271 275 279 282 283 282 281 281 280 281 280 275 271 272 274 277 281 285 288 291 294 296 297 299 300 301 305 308 312 315 318 319 319 319 322 326 328 329 333 337 338 340 341 341 340
234 237 239 242 243 243 245 246 247 249 250 250 251 251 250 250 249 248 248 247 247 248 249 250 251 252 253 254 254 253 252 252 254 256 258 260 260 259 260 263 268 274 277 278 276 274 274 274 274 274 269 263 264 268 273 278 283 287 289 290 292 293 294 295 296 299 303 306 309 312 313 313 315 316 319 324 327 330 334 336 337 339 340 340 341
235 238 239 242 244 245 247 249 250 251 252 252 253 253 254 254 254 254 254 253 253 253 253 254 255 256 257 258 258 257 256 258 260 261 261 259 258 257 258 262 267 271 273 274 273 272 271 271 272 271 266 261 264 269 273 278 282 285 287 288 288 290 290 291 293 295 299 301 304 306 307 309 311 313 316 321 324 327 331 333 334 336 337 338 341
239 242 244 247 248 250 252 253 253 254 254 255 256 256 257 257 257 258 257 256 256 255 255 256 257 258 258 258 258 259 259 261 262 258 254 253 254 256 258 261 264 267 268 268 268 267 269 272 276 279 276 274 275 277 277 277 278 279 281 283 284 285 286 287 289 291 293 297 300 303 304 306 308 311 314 317 320 323 328 331 332 333 335 336 339
243 247 250 252 254 256 258 258 259 259 259 260 260 259 260 260 259 260 259 258 258 257 257 257 257 256 256 255 255 255 255 254 252 249 249 252 255 256 257 259 262 266 266 265 264 267 271 275 278 277 276 277 281 282 279 276 276 277 277 277 278 280 282 283 285 288 291 294 296 299 302 304 306 310 312 314 317 321 324 327 328 330 332 334 336
252 255 257 257 258 259 259 259 259 260 260 261 262 262 262 262 262 262 262 261 261 259 258 257 257 256 256 255 253 253 252 251 250 250 252 253 254 255 256 258 261 263 262 262 264 269 273 274 272 272 273 276 279 279 277 276 277 277 276 275 273 275 278 280 283 285 288 291 294 296 300 303 305 307 310 312 315 318 322 324 326 327 329 331 333
260 263 264 264 264 263 262 262 262 261 262 263 264 264 264 264 264 264 264 263 263 262 260 259 258 258 258 256 254 253 252 252 251 251 251 252 253 253 255 258 260 259 258 257 260 264 267 268 267 268 271 273 274 275 274 275 276 276 276 275 272 271 273 277 281 283 286 290 293 295 298 302 304 306 307 310 314 317 320 322 324 325 327 328 330
257 258 259 261 263 265 266 268 268 269 269 269 268 268 268 267 267 266 265 264 263 263 263 262 260 259 258 258 257 254 252 251 250 251 250 250 251 252 253 254 255 254 255 256 258 261 263 264 263 265 268 270 272 273 273 274 274 274 274 274 272 271 271 274 278 282 285 288 291 294 297 299 302 304 306 308 312 316 318 319 321 323 325 326 327
256 256 258 258 260 262 265 267 269 271 271 272 272 272 272 271 269 268 267 266 266 266 266 266 264 262 261 260 260 258 254 251 250 250 250 249 249 250 250 250 252 253 254 257 260 263 263 261 261 263 266 268 271 274 274 274 273 273 273 273 272 271 272 273 276 279 282 286 289 292 294 297 299 302 304 307 309 312 313 316 319 321 322 323 324
259 260 261 261 262 264 265 266 267 268 270 271 273 273 273 272 271 270 269 268 267 266 266 266 265 264 261 260 259 259 257 253 250 249 249 249 248 247 248 251 256 259 259 259 261 263 263 261 260 262 264 267 271 274 274 273 272 271 272 272 271 271 272 273 275 278 281 284 287 289 291 294 297 299 301 303 305 307 310 313 314 316 318 320 321
262 262 263 264 265 266 266 266 267 267 268 269 270 271 272 272 272 271 269 267 266 265 265 264 263 261 259 257 256 256 255 252 249 247 247 248 247 248 250 254 257 260 261 261 261 260 259 258 258 260 263 267 270 272 272 272 272 271 270 271 271 271 272 273 275 278 280 282 285 287 289 292 295 297 298 300 302 304 306 309 310 312 313 315 317
266 266 267 267 268 268 269 269 269 268 269 270 270 272 273 274 273 272 270 268 267 266 264 263 262 261 259 257 256 255 252 248 245 243 243 245 247 250 255 258 261 263 265 265 263 259 256 255 256 259 263 267 269 271 272 272 271 270 269 270 270 271 272 274 276 278 280 282 284 286 288 291 293 294 296 297 300 302 304 306 307 308 309 311 315
270 270 270 270 270 270 270 271 271 271 272 273 274 275 275 275 274 273 271 269 268 266 265 264 263 262 261 258 256 253 249 246 245 245 246 249 251 253 257 260 262 264 266 266 263 258 255 255 256 259 263 267 269 271 271 271 270 269 268 269 270 271 272 274 275 277 279 282 284 285 287 289 291 292 293 295 298 300 301 303 305 306 307 310 312
272 272 272 272 272 272 272 272 272 273 274 275 276 276 276 275 274 273 272 270 269 268 267 267 266 265 263 259 254 250 248 248 248 249 250 252 254 255 256 259 261 264 265 264 260 257 255 256 257 260 264 267 269 270 271 270 269 268 268 268 270 272 272 273 275 277 279 281 282 284 285 287 288 290 292 294 296 298 300 302 304 305 306 307 308
276 276 276 276 276 276 276 275 276 276 276 277 277 277 277 277 275 274 272 271 271 270 270 269 267 265 262 256 250 247 247 248 249 250 250 251 253 254 256 259 262 264 264 261 257 255 256 257 259 261 264 267 269 270 270 270 269 269 269 270 271 273 274 275 276 278 279 280 281 282 283 285 287 289 291 293 295 297 299 301 303 304 304 305 305
279 278 278 278 278 277 277 277 277 277 276 276 276 277 277 276 275 274 273 273 272 271 268 266 264 260 255 249 244 242 244 246 248 249 251 252 254 256 258 260 262 262 260 257 255 255 257 259 260 263 266 268 269 269 270 270 270 269 270 270 271 273 275 276 278 279 280 280 279 280 282 284 286 288 290 292 295 297 298 300 302 303 304 305 305
281 280 280 279 278 278 277 277 276 276 275 276 276 275 274 273 272 271 270 269 268 267 264 262 259 254 248 242 240 241 244 246 249 252 255 256 258 259 259 260 260 259 257 255 254 256 259 261 263 265 267 268 269 269 270 271 271 270 270 270 271 273 275 276 278 279 278 277 277 279 282 285 286 287 289 291 293 295 296 298 301 302 304 305 304
283 282 282 281 280 280 280 279 279 278 277 276 275 274 273 272 270 269 268 267 265 263 261 258 252 245 240 238 239 242 247 251 254 256 258 259 259 259 258 257 256 255 254 254 255 257 260 263 265 268 270 271 271 270 270 271 271 270 270 270 271 272 274 276 278 277 276 276 277 280 283 285 286 288 289 291 292 293 294 296 298 300 302 303 304
284 282 280 280 279 280 280 281 280 280 278 277 275 273 272 271 270 269 268 266 264 260 256 250 245 239 237 239 242 246 251 256 258 258 257 257 258 259 258 256 255 253 253 254 255 257 261 265 268 270 272 273 272 271 270 270 270 270 270 270 271 272 274 275 276 275 275 276 278 280 282 284 286 288 290 291 291 291 293 294 296 298 299 301 302
283 281 280 278 277 278 278 279 279 278 277 275 273 271 269 269 268 267 265 262 259 254 248 244 241 240 240 244 248 250 253 256 259 259 259 258 257 256 255 253 252 252 253 254 255 258 262 266 270 272 274 273 272 270 268 268 268 270 270 271 271 272 273 274 274 273 274 275 278 280 282 285 287 289 290 291 291 291 292 293 294 295 296 298 298
282 281 280 279 278 278 279 278 278 277 275 273 271 269 267 266 264 262 259 255 250 246 242 240 241 244 246 249 251 253 254 255 257 259 260 259 255 252 250 248 249 251 252 254 256 261 265 269 272 274 275 274 272 270 268 267 267 268 269 270 271 271 270 270 270 271 273 275 277 280 283 286 288 290 292 292 292 292 292 293 293 293 293 294 295
284 282 281 280 279 278 278 278 278 276 274 273 270 267 264 262 259 256 252 247 243 240 241 242 245 247 248 249 251 252 253 254 255 256 258 258 255 251 249 248 249 251 253 257 261 266 270 274 275 276 276 276 274 272 270 268 266 267 268 269 269 268 267 266 267 269 272 275 278 282 285 288 290 292 293 293 293 293 293 292 292 292 291 291 292
286 284 282 280 278 277 276 275 274 272 270 268 266 263 260 255 250 245 242 240 238 239 242 245 246 248 249 250 250 251 251 251 252 253 254 254 253 252 251 251 253 256 260 264 268 271 274 275 276 277 277 277 276 274 272 270 268 267 268 267 266 264 263 264 266 270 273 277 280 283 286 289 290 292 293 294 294 294 293 293 292 291 289 288 288
285 283 281 279 277 275 273 272 270 268 266 262 259 256 251 247 243 240 240 241 243 245 246 248 249 249 249 249 249 249 249 250 251 251 252 252 253 253 255 257 260 263 267 270 272 274 275 277 277 277 277 276 275 274 272 271 269 268 267 266 265 264 264 265 269 272 276 279 282 285 287 288 289 291 292 294 294 295 294 293 292 291 289 288 287
283 282 280 278 276 274 272 269 266 263 260 256 252 249 246 244 244 244 244 245 246 246 246 246 246 246 247 247 248 249 250 251 251 251 252 253 253 255 257 260 263 267 270 272 274 275 277 278 278 277 276 275 274 272 270 269 268 267 267 266 266 266 267 268 271 274 277 281 284 286 288 288 289 290 292 293 294 295 295 293 291 290 288 286 285